Miscellaneous Local Product
Issued by NWS Hastings, NE

Home | Current Version | Previous Version | Graphics & Text | Print | Product List | Glossary On
Versions: 1 2 3 4 5 6 7 8 9 10 11 12 13 14 15 16 17 18 19 20 21 22 23 24 25 26 27 28 29 30 31 32 33 34 35 36 37 38 39 40 41 42 43 44 45 46 47 48 49 50
000
AXUS43 KGID 201310
MISGRI

GID CWA HOURLY WEATHER ROUNDUP
NATIONAL WEATHER SERVICE HASTINGS NE
800 AM CDT SAT SEP 20 2014

NOTE: "FAIR" INDICATES FEW OR NO CLOUDS BELOW 12,000 FEET WITH NO
SIGNIFICANT WEATHER AND/OR OBSTRUCTIONS TO VISIBILITY.

...SOUTH CENTRAL NEBRASKA...

CITY           SKY/WX    TMP DP  RH WIND       PRES   REMARKS
GRAND ISLAND   CLEAR     64  60  87 N6        29.94R
HASTINGS       CLEAR     65  58  78 CALM      29.93R
KEARNEY        CLEAR     63  57  82 NW8       29.96R
ORD            CLEAR     62  54  74 N7        29.95R
YORK           PTCLDY    66  63  88 S5        29.92R
AURORA         CLEAR     64  61  91 CALM      29.92R
LEXINGTON      CLEAR     61  58  90 N5        29.98R
HOLDREGE       CLEAR     62  60  91 CALM      29.96R
HEBRON         PTCLDY    65  61  87 CALM      29.94R

...NEBRASKA PANHANDLE...

CITY           SKY/WX    TMP DP  RH WIND       PRES   REMARKS
CHADRON        CLEAR     49  46  90 SW5       30.11R
ALLIANCE       CLEAR     48  45  89 W7        30.12R
SCOTTSBLUFF    CLEAR     52  48  86 NW9       30.15R
SIDNEY         CLEAR     54  49  83 NW9       30.14R

...WESTERN AND NORTH CENTRAL NEBRASKA...

CITY           SKY/WX    TMP DP  RH WIND       PRES   REMARKS
VALENTINE      PTCLDY    53  51  93 W8        30.02R
AINSWORTH      PTCLDY    56  51  82 W3        30.01R
ONEILL         CLOUDY    61  58  89 W5        29.97R
BROKEN BOW     CLEAR     60  53  77 N9        29.99R
IMPERIAL       CLEAR     61  53  75 N8        30.05R
NORTH PLATTE   CLEAR     58  53  84 N6        30.02R
MCCOOK         CLEAR     64  60  87 N16       29.97R

...EASTERN NEBRASKA...

CITY           SKY/WX    TMP DP  RH WIND       PRES   REMARKS
NORFOLK        PTCLDY    65  58  78 N5        29.92R
SO SIOUX CITY  MOCLDY    63  62  97 NW3       29.89R
TEKAMAH        MOCLDY    67  65  93 SW5       29.89R
ALBION         PTCLDY    62  57  82 N7        29.94R
OMAHA EPPLEY   CLOUDY    70  64  81 S13       29.91R
OFFUTT AFB     CLOUDY    69  68  99 S8        29.93R
MILLARD        CLOUDY    69  65  87 S3        29.92R
LINCOLN        CLOUDY    70  65  84 S8        29.91R
NEBRASKA CITY    N/A     69  67  95 NE6       29.95R
BEATRICE       CLOUDY    69  64  84 CALM      29.95S
FALLS CITY     CLOUDY    71  67  87 S8        29.93F

...NORTHERN KANSAS...

CITY           SKY/WX    TMP DP  RH WIND       PRES   REMARKS
GOODLAND       CLEAR     62  55  77 NW14      30.03R
HILL CITY      CLEAR     68  63  84 W8        29.93R
NORTON         SUNNY     63  57  82 NW6       29.94R
SMITH CENTER   CLEAR     64  59  82 CALM      29.94R
BELOIT         CLEAR     68  63  83 S3        29.92R
HAYS           CLEAR     64  57  77 SW13      29.94S
RUSSELL        CLEAR     67  62  84 S12       29.92R
CONCORDIA      CLEAR     69  64  84 S10       29.93R
SALINA         CLEAR     69  64  84 S12       29.95R
TOPEKA         CLEAR     68  66  93 CALM      29.98R FOG



USA.gov is the U.S. government's official web portal to all federal, state and local government web resources and services.